Volver al catálogo

DMSP 5D-2 F13 DEB

ActivoSSO
NORAD 42286·DEBRIS·🇺🇸 United States

Lanzado Mar 24, 1995 desde Vandenberg Space Force Base

Loading…

Próximos Pases (próximas 24 horas)

TLE

EnvejeciendoSource: Space-Track

Época: Sep 10, 2026, 04:28 UTC

1 42286U 95015HC  26253.18624121  .00002502  00000-0  10588-2 0  9998
2 42286  98.9271 232.9300 0049511 186.8526 173.1981 14.25764709582892

Sigue DMSP 5D-2 F13 DEB en tiempo real con AllMySat

Download on the App Store